Skip Page Navigation
NASA JPL Caltech
NASA Logo - Jet Propulsion Laboratory + View the NASA Portal
+ Center for Near-Earth Object Studies
JPL Home Earth Solar System Stars & Galaxies Technology
JPL Solar System Dynamics
BODIES ORBITS EPHEMERIDES TOOLS PHYSICAL DATA DISCOVERY FAQ SITE MAP
JPL Small-Body Database Browser
Search: [ help ]  
1459 Magnya (1937 VA)
Classification: Main-belt Asteroid          SPK-ID: 2001459
Ephemeris | Orbit Diagram | Orbital Elements | Mission Design | Physical Parameters | Discovery Circumstances | Close-Approach Data ]

[ show orbit diagram ]
Orbital Elements at Epoch 2459000.5 (2020-May-31.0) TDB
Reference: JPL 34 (heliocentric ecliptic J2000)
 Element Value Uncertainty (1-sigma)   Units 
e .2301737996480482 4.1392e-08  
a 3.152387645516636 1.5558e-08 au
q 2.426790603184507 1.3078e-07 au
i 16.89746198479637 4.5473e-06 deg
node 41.47368861208021 1.4289e-05 deg
peri 328.3832683294447 1.6942e-05 deg
M 298.5250881862007 1.2213e-05 deg
tp 2459349.602746625487
(2021-May-15.10274663)
7.1106e-05 TDB
period 2044.362245948998
5.60
1.5134e-05
4.143e-08
d
yr
n .176094036520855 1.3036e-09 deg/d
Q 3.877984687848764 1.9139e-08 au
  Orbit Determination Parameters
   # obs. used (total)      2665  
   data-arc span      30174 days (82.61 yr)  
   first obs. used      1937-11-06  
   last obs. used      2020-06-17  
   planetary ephem.      DE431  
   SB-pert. ephem.      SB431-N16  
   condition code      0  
   norm. resid. RMS      .41305  
   source      ORB  
   producer      Otto Matic  
   solution date      2020-Jun-23 15:31:41  

Additional Information
 Earth MOID = 1.44456 au 
 Jupiter MOID = 1.6412 au 
 T_jup = 3.100 
[ show covariance matrix ]

Ephemeris | Orbit Diagram | Orbital Elements | Mission Design | Physical Parameters | Discovery Circumstances | Close-Approach Data ]

Physical Parameter Table
Parameter Symbol Value Units Sigma Reference Notes
absolute magnitude H 10.3   n/a MPO435710  
diameter diameter 29.188 km 1.833 urn:nasa:pds:neowise_diameters_albedos::2.0[mainbelt] (http://adsabs.harvard.edu/abs/2012ApJ...759L...8M)  
rotation period rot_per 4.678 h n/a LCDB (Rev. 2019-August); Warner et al., 2009 Published Reference List:
[Almeida, R.; Angeli, C.A.; Duffard, R.; Lazzaro, D. (2004) Astron. Astrophys. 415, 403-406.]
[Behrend, R. (2005) Observatoire de Geneve web site, http://obswww.unige.ch/~behrend/page_cou.html]
[Delbo, M.; Gai, M.; Lattanzi, M.G.; Ligori, S.; et al. (2006) Icarus 181, 618-622.]
[Licchelli, D. (2006) Minor Planet Bull. 33, 11-13.]
[Silva, J.S.; Lzzaro, D. (2015) Astron. Astrophys. 580, A70.]
[Durech, J.; Hanus, J.; Oszkiewsicz, D.; Vanco, R. (2016) Astron. Astrophys. 587, A48.]
[Hanus, J.; Durech, J.; Oszkiewicz, D.A.; Behrend, R.; et al. (2016) Astron. Astrophys. 586, A108.]
geometric albedo albedo 0.909   0.224 urn:nasa:pds:neowise_diameters_albedos::2.0[mainbelt] (http://adsabs.harvard.edu/abs/2012ApJ...759L...8M)  

1459 Magnya (1937 VA)          Discovered 1937-Nov-04 by Neujmin, G. at Simeis
Independent discovery Nov. 6 by A. Patry, Nice, was announced first.
Reference: DISCOVERY.DBLast Updated: 2003-08-29

[ show close-approach data ]
Alternate Designations
 1937 VA = 2019 FD5 
Ephemeris | Orbit Diagram | Orbital Elements | Mission Design | Physical Parameters | Discovery Circumstances | Close-Approach Data ]
ABOUT SSD CREDITS/AWARDS PRIVACY/COPYRIGHT GLOSSARY LINKS
FirstGov 2020-Oct-31 17:06 UT
(server date/time)  
NASA Home Page
Site Manager:   Ryan S. Park
Webmaster  Alan B. Chamberlin